Regional Weather Roundup
Issued by NWS

Home | Current Version | Previous Version | Text Only | Print | Product List | Glossary Off
Versions: 1 2 3 4 5 6 7 8 9 10 11 12 13 14 15 16 17 18 19 20 21 22 23 24 25 26 27 28 29 30 31 32 33 34 35 36 37 38 39 40 41 42 43 44 45 46 47 48 49 50

000
ASUS45 KTFX 250710
RWRMT
MONTANA REGIONAL WEATHER ROUNDUP
NATIONAL WEATHER SERVICE GREAT FALLS MT
100 AM MDT SAT MAR 25 2017

NOTE: "FAIR" INDICATES FEW OR NO CLOUDS BELOW 12000 FEET WITH NO
SIGNIFICANT WEATHER AND/OR OBSTRUCTIONS TO VISIBILITY.

MTZ001>007-043-250800-
WEST OF THE DIVIDE

CITY           SKY/WX    TMP DP  RH WIND       PRES   REMARKS
KALISPELL      MOCLDY    39  33  79 S9        29.92R
MISSOULA       CLOUDY    41  36  82 SW5       30.00R
BUTTE          CLOUDY    40  33  76 CALM      29.93R
MULLAN PASS    SNOW      28  28 100 VRB6      29.94R VSB 1/4 WCI  22
ANACONDA         N/A     37  34  87 W10       29.93R WCI  30
DEER LODGE       N/A     37  36  93 N5        29.95R
EUREKA           N/A     43  34  70 SE9       29.90R
HAMILTON         N/A     43  37  81 W10       30.00R
PLAINS           N/A     44  29  56 SW7       29.99
RONAN            N/A     43  32  65 S5        30.02R
$$

MTZ008-052>055-250800-
SOUTHWEST MONTANA

CITY           SKY/WX    TMP DP  RH WIND       PRES   REMARKS
BOZEMAN        CLOUDY    50  30  46 SW7       29.89R
DILLON         CLOUDY    43  34  70 W6        29.93R
W YELLOWSTONE  CLOUDY    34  32  93 SW5       30.03F FOG
ENNIS          CLOUDY    45  30  57 S26G38    29.97F
$$

MTZ009-010-012-014-046-048-049-054-250800-
EAST SLOPES AND CENTRAL MONTANA

CITY           SKY/WX    TMP DP  RH WIND       PRES   REMARKS
CUT BANK       MOCLDY    39  30  70 W12       29.78R WCI  32
GREAT FALLS    CLEAR     43  30  60 SW16      29.83R
MALMSTROM AFB  PTCLDY    46  32  58 SW26G33   29.82S
HELENA         CLOUDY    43  38  82 NW9       29.91R
AUGUSTA        MOCLDY    39  29  65 W9        29.83R
BOWMANS CRNR     N/A     39  31  73 S21       29.82S WCI  29
CHOTEAU          N/A     39  30  70 NW9       29.85R
CONRAD           N/A     43  33  67 SW6       29.84R
FAIRFIELD        N/A     44  28  55 SW17      29.81R
POWER            N/A     42  30  62 SW16      29.81R
RAYNESFORD       N/A     47  31  54 W15       29.84R
$$

MTZ011-013-016-021-045-047-050-051-250800-
NORTH CENTRAL MONTANA

CITY           SKY/WX    TMP DP  RH WIND       PRES   REMARKS
HAVRE          MOCLDY    47  34  60 SW12      29.75R
LEWISTOWN      CLOUDY    49  25  39 NW9       29.82R
N BAR RANCH      N/A     54  23  30 W10       29.84R
CHINOOK          N/A     52  30  43 SW5       29.75R
DENTON         MOCLDY    51  32  47 W20G26    29.77R
FORT BENTON      N/A     52  30  43 MISG      29.81R
GEYSER           N/A     44  33  63 W12       29.82R
GRASS RANGE    MOCLDY    53  25  32 SW16      29.77R
STANFORD         N/A     47  30  51 W15       29.82R
WINIFRED         N/A     47  28  47 W9        29.79R
$$

MTZ017>020-022>027-061-062-250800-
NORTHEAST MONTANA

CITY           SKY/WX    TMP DP  RH WIND       PRES   REMARKS
GLASGOW        CLOUDY    51  30  44 SE16      29.75F
JORDAN           N/A     51  32  48 CALM      29.76S
SIDNEY         PTCLDY    47  33  58 S9G20     29.89F
WOLF POINT     CLOUDY    51  35  54 NE6       29.79F
MALTA          CLOUDY    54  34  47 W12G17    29.71R
PLENTYWOOD       N/A     43  36  75 SE12      29.86F
POPLAR           N/A     48  36  61 SE17      29.81F VSB 1
SCOBEY           N/A     46  27  48 SE16      29.79
$$

MTZ028>42-056>058-250800-
SOUTHCENTRAL AND SOUTHEAST MONTANA

CITY           SKY/WX    TMP DP  RH WIND       PRES   REMARKS
BAKER          PTCLDY    42  32  67 SE21G29   29.89F
BILLINGS       CLOUDY    53  31  42 W14       29.82S
LIVINGSTON     CLOUDY    50  28  42 SW29G47   29.83S
MILES CITY     MOCLDY    49  32  52 S15       29.80S
BIG TIMBER     CLEAR     50  28  43 W15       29.87R
EKALAKA          N/A     45  30  55 SE20      29.87
FORSYTH          N/A     54  34  47 CALM      29.79R
HARLOWTON      MOCLDY    47  27  45 NW15      29.83R
LAUREL           N/A     51  27  39 SW8       29.84S
$$

REGIONAL REPORTS...DAKOTAS

CITY           SKY/WX    TMP DP  RH WIND       PRES   REMARKS
WILLISTON      CLOUDY    43  33  68 SE10G18   29.92F
MINOT          CLOUDY    31  29  92 SE13      30.06F WCI  21
DICKINSON      FLURRIES  38  31  76 SE20G28   29.96F WCI  28
BEACH            N/A    N/A N/A N/A MISG        N/A
TIOGA            N/A     34  34 100 SE14G20   29.98F WCI  24
WATFORD CITY     N/A     41  32  70 SE17      29.93F
BISMARCK       CLOUDY    30  27  88 E9        30.13F WCI  22
GRAND FORKS    PTCLDY    29  28  96 CALM      30.21F
FARGO          CLEAR     27  25  92 CALM      30.21F
BUFFALO SD       N/A     42  32  67 SE24G32   29.87F
RAPID CITY     CLEAR     37  28  70 SE8       30.03F WCI  31
$$

REGIONAL REPORTS...WYOMING/IDAHO/WASHINGTON

CITY           SKY/WX    TMP DP  RH WIND       PRES   REMARKS
GILLETTE       CLOUDY    44  28  53 S24G30    29.89F
SHERIDAN       CLOUDY    43  37  79 N3        29.83S
BUFFALO WY     CLOUDY    48  27  44 S9        29.85F
CODY           CLOUDY    50  22  33 SW13      29.93S
YELLOWSTONE LA   N/A     30  28  92 VRB3      30.07S
IDAHO FALLS    LGT RAIN  44  39  82 S10       30.05F
SALMON         CLOUDY    45  36  70 S14       29.96R
BOISE          CLOUDY    43  39  86 SE7       30.07S
SPOKANE        PTCLDY    40  38  93 S8        29.98R
$$

REGIONAL REPORTS...ALBERTA

CITY           SKY/WX    TMP DP  RH WIND       PRES   REMARKS
EDMONTON       MOCLDY    30  28  93 N5        29.65R
CALGARY        CLOUDY    41  23  48 W12G18    29.61R
LETHBRIDGE     CLEAR     43  30  61 SW14G25   29.70R
MEDICINE HAT   CLOUDY    46  34  61 SW20      29.67S
WATERTON GATE    N/A     36  32  87 SW14G23     N/A  WCI  27
CARDSTON         N/A     39  32  75 SW15G23     N/A  WCI  31
MILK RIVER       N/A     39  32  75 SW7         N/A
$$

REGIONAL REPORTS...SASKATCHEWAN

CITY           SKY/WX    TMP DP  RH WIND       PRES   REMARKS
SWIFT CURRENT  CLOUDY    46  34  61 SW15G24   29.66R
REGINA         LGT RAIN  36  32  87 SE18G32   29.84F WCI  25
SASKATOON      LGT RAIN  36  32  87 SE20G28   29.75F WCI  25
VAL MARIE        N/A     50  34  53 S20         N/A
ROCKGLEN         N/A     43  34  70 SE20G25     N/A
ASSINIBOIA       N/A     34  30  86 NE6         N/A  WCI  29
$$



USA.gov is the U.S. government's official web portal to all federal, state and local government web resources and services.